ECHO 2 DEB (METAL OBJ), 743

Orbit data source: Space-Track

ECHO 2 DEB (METAL OBJ), 743 is space debris in LEO originally from a launch on Sat, 25 Jan 1964 UTC launched from the Air Force Western Test Range (AFWTR). Debris objects in space refer to the collection of defunct objects orbiting the Earth. Examples of debris include non-operational satellites, rocket bodies, and fragments generated from explosions, collisions, or faulty payload assembly.

Loading next visibility...
Identifier
743, 1964-004D
Orbit
LEO
Last TLE update
16 hours ago
Origin
Manufacturer
Grummann
Mission
Spacecraft
Bus & Motor
ECHO CANISTER, Unknown motor
Mass
35 kg wet, 35 kg dry
Launch date (UTC)
1964-01-25 (61 years ago)
Launch vehicle
Unknown
Launch site
Air Force Western Test Range (AFWTR)
Object type
Payload
Rocket body
Debris
Shape & HBR
Unknown
Radar Cross Section
1.000 m², Medium (>0.1 m² and < 1m²)

Expand to show TLE details & history

TLE from 16 hours ago
0 ECHO 2 DEB (METAL OBJ)
1 00743U 64004D   25182.20499795  .00000101  00000-0  18476-3 0  9992
2 00743  81.5216  92.5360 0173850 143.9479   8.0234 13.26813395971583
Epoch: 2025-07-01T04:55Z
TLE epoch observation values (Epoch: 2025-07-01T04:55:11.822Z)
Latitude
27.45597°
Longitude
-85.18617°
Altitude
1,032.345 km
Speed
7.401 km/s
True Right ascension
17h 52m 28s
True Declination
27° 19' 15"
Sunlit
Object was in full shadow at epoch
Visualization orbit readout
Latitude
35.60696°
Longitude
104.79387°
Altitude
1,198.244 km
Speed
7.241 km/s
Apparent Right ascension
03h 09m 11s
Apparent Declination
6° 28' 31"
Sunlit
Object is in daylight
Visualization observer readout
Local Sidereal Time
08:18:12
Azimuth
266.798° W
Elevation
13.919°
Doppler factor
1
Orbital elements
Apogee altitude
1,287.062 km
Perigee altitude
1,025.097 km
Semi-major axis
7,534.217 km
Eccentricity
0.01739
Inclination
81.5216°
RAAN
92.536°
Arg. of periapsis
143.9479°
True anomaly
Unknown
Mean anomaly
8.0234°
Eccentric anomaly
Unknown
Mean motion
3.31884 °/min
Orbital period
108.47 mins
BSTAR
0.00018476
Loading maneuver chart data...
Loading SW <> Apogee altitude chart data...
Loading historical data...
Loading historical data...
Loading historical data...
Loading historical data...
Loading historical data...
Loading historical data...
Loading historical data...

ECHO 2 DEB (METAL OBJ) Visibility forecast

Observer location: undefined°, undefined°

Span
Click to sort rows by Start time (UTC) header in descending order
Start Az.
Max El. time (UTC)
Max El. Az.
Max El.
End time (UTC)
End Az.
7 mins2025-07-01 20:38:04.561Z266.58° W2025-07-01 20:41:04.561Z294.493° NW16.695°2025-07-01 20:45:04.561Z331.034° NNW
6 mins2025-07-02 04:19:04.561Z38.563° NE2025-07-02 04:22:04.561Z71.044° E16.69°2025-07-02 04:25:04.561Z101.017° ESE
11 mins2025-07-02 06:07:04.561Z343.745° N2025-07-02 06:12:04.561Z245.941° WSW42.975°2025-07-02 06:18:04.561Z182.81° SSW
13 mins2025-07-02 18:16:04.561Z168.633° S2025-07-02 18:22:04.561Z102.112° ESE40.518°2025-07-02 18:29:04.561Z17.144° NNE
9 mins2025-07-02 20:08:04.561Z248.257° W2025-07-02 20:12:04.561Z288.928° WNW22.731°2025-07-02 20:17:04.561Z339.467° N
|